This is the latest recevied weather packets stored in our database for station/object KS5S. If no packets are shown the sender has not sent any weather packets the latest 10 day(s).
| Time | Temp. | Humidity | Pressure | Rain* | Wind** | Luminosity | Snow |
|---|---|---|---|---|---|---|---|
| 1777998208 | 27.22° C | 76% | 1003.7 hPa | 0 mm | - | 518 W/m² | - |
| 1777997905 | 27.22° C | 77% | 1003.7 hPa | 0 mm | - | 542 W/m² | - |
| 1777997603 | 26.67° C | 77% | 1003.7 hPa | 0 mm | - | 578 W/m² | - |
| 1777997300 | 26.67° C | 77% | 1003.5 hPa | 0 mm | - | 485 W/m² | - |
| 1777996998 | 26.67° C | 78% | 1003.4 hPa | 0 mm | - | 490 W/m² | - |
| 1777996694 | 26.11° C | 77% | 1003.2 hPa | 0 mm | - | 457 W/m² | - |
| 1777996389 | 26.11° C | 78% | 1003.1 hPa | 0 mm | - | 585 W/m² | - |
| 1777996086 | 26.67° C | 78% | 1003.3 hPa | 0 mm | - | 469 W/m² | - |
| 1777995783 | 26.11° C | 78% | 1003.3 hPa | 0 mm | - | 550 W/m² | - |
| 1777995479 | 26.11° C | 79% | 1003.3 hPa | 0 mm | - | 534 W/m² | - |
| 1777995176 | 26.11° C | 79% | 1003.5 hPa | 0 mm | - | 501 W/m² | - |
| 1777994874 | 26.11° C | 80% | 1003.5 hPa | 0 mm | - | 582 W/m² | - |
| 1777994570 | 26.11° C | 80% | 1003.3 hPa | 0 mm | - | 676 W/m² | - |
| 1777994264 | 25.56° C | 81% | 1003.4 hPa | 0 mm | - | 594 W/m² | - |
| 1777993962 | 25.56° C | 81% | 1003.4 hPa | 0 mm | - | 548 W/m² | - |
| 1777993659 | 25.56° C | 81% | 1003.7 hPa | 0 mm | - | 447 W/m² | - |
| 1777993356 | 25° C | 83% | 1003.8 hPa | 0 mm | - | 434 W/m² | - |
| 1777993050 | 25° C | 83% | 1003.7 hPa | 0 mm | - | 334 W/m² | - |
| 1777992749 | 25° C | 82% | 1003.8 hPa | 0 mm | - | 431 W/m² | - |
| 1777992446 | 24.44° C | 83% | 1003.8 hPa | 0 mm | - | 411 W/m² | - |
| 1777992144 | 24.44° C | 84% | 1003.7 hPa | 0 mm | - | 272 W/m² | - |
| 1777991841 | 25° C | 83% | 1003.8 hPa | 0 mm | - | 372 W/m² | - |
| 1777991538 | 24.44° C | 84% | 1003.7 hPa | 0 mm | - | 410 W/m² | - |
| 1777991235 | 24.44° C | 85% | 1003.7 hPa | 0 mm | - | 357 W/m² | - |
| 1777990932 | 24.44° C | 84% | 1003.7 hPa | 0 mm | - | 345 W/m² | - |
* Rain latest hour (hover to see other rain measurements)
** Current wind speed in m/s (hover to see current wind gust speed)